NOAA 16 DEB, 41150

Orbit data source: Space-Track

NOAA 16 DEB, 41150 is space debris in SSO originally from a launch on Thu, 21 Sep 2000 UTC launched from the Air Force Western Test Range (AFWTR). Debris objects in space refer to the collection of defunct objects orbiting the Earth. Examples of debris include non-operational satellites, rocket bodies, and fragments generated from explosions, collisions, or faulty payload assembly.

Loading next visibility...
Identifier
41150, 2000-055CH
Orbit
SSO
Country
Flag of USUS
Related business
Manufacturer
Unknown
Mission
Spacecraft
Bus & Motor
Unknown
Mass
Unknown
Launch date (UTC)
2000-09-21 (26 years ago)
Launch vehicle
Unknown
Launch site
Air Force Western Test Range (AFWTR)
Object type
Payload
Rocket body
Debris
Shape & HBR
Unknown shape, 0.1 m
Radar Cross Section
Medium (>0.1 m² and <1 m²)

Expand to show TLE details & history
Last TLE update: 22 hours ago

TLE from 22 hours ago
0 NOAA 16 DEB
1 41150U 00055CH  26236.51407096  .00023313  00000-0  23855-2 0  9999
2 41150  98.8043  76.4428 0023574  85.3569 275.0338 14.90324278562543
Epoch: 2026-08-24T12:20Z
TLE epoch observation values (Epoch: 2026-08-24T12:20:15.730Z)
Latitude
-0.00001°
Longitude
-81.41742°
Altitude
598.526 km
Speed
7.561 km/s
True Right ascension
05h 05m 46s
True Declination
0° 00' 00"
Sunlit
Object was in daylight at epoch
Visualization orbit readout
Latitude
Unknown
Longitude
Unknown
Altitude
Unknown
Speed
Unknown
Apparent Right ascension
Unknown
Apparent Declination
Unknown
Sunlit
N/A
Visualization observer readout
Local Sidereal Time
01:51:56
Azimuth
Unknown
Elevation
Unknown
Doppler factor
Unknown
Orbital elements
Apogee altitude
610.43 km
Perigee altitude
577.558 km
Semi-major axis
6,972.131 km
Eccentricity
0.00236
Inclination
98.8043°
RAAN
76.4428°
Arg. of periapsis
85.3569°
True anomaly
274.76464°
Mean anomaly
275.0338°
Eccentric anomaly
274.89922°
Mean motion
3.72816 °/min
Orbital period
96.56 mins
BSTAR
0.0023855
Loading maneuver chart data...
Computing Atmospheric mass density...
Loading historical data...
Loading historical data...
Loading historical data...
Loading historical data...
Loading historical data...
Loading historical data...
Loading historical data...

Documentation

Showing up to 5 results
|